DW5988 Weather Reports


time (UTC)temp
C
wind
direction
speed
KPH
gust
KPH
rain 1hr
cm
rain 24hr
cm
rain mn
cm
humidity
%
barometer
mb
20260503013804 18 233 6.4 11.3 0.00 0.00 0.00 31 1011.4
20260503013304 18 232 9.7 14.5 0.00 0.00 0.00 31 1011.5
20260503012305 18 247 9.7 19.3 0.00 0.00 0.00 29 1011.6
20260503011303 18 244 11.3 19.3 0.00 0.00 0.00 29 1011.6
20260503005804 18 230 9.7 19.3 0.00 0.00 0.00 29 1011.7
20260503003303 19 3 0.0 0.0 0.00 0.00 0.00 27 1012.3
20260503002804 19 4 0.0 9.7 0.00 0.00 0.00 27 1012.4
20260503001805 19 242 9.7 9.7 0.00 0.00 0.00 27 1012.3
20260502235805 19 246 12.9 22.5 0.00 0.00 0.00 27 1012.6
20260502234804 19 268 1.6 11.3 0.00 0.00 0.00 26 1012.7
20260502233805 19 233 8.0 19.3 0.00 0.00 0.00 27 1012.8
20260502233304 18 247 4.8 16.1 0.00 0.00 0.00 26 1012.9
20260502232305 19 241 11.3 20.9 0.00 0.00 0.00 26 1013.1
20260502231304 19 268 17.7 27.4 0.00 0.00 0.00 26 1013.2
20260502230804 20 273 6.4 11.3 0.00 0.00 0.00 26 1013.3
20260502225305 19 293 9.7 16.1 0.00 0.00 0.00 26 1013.5
20260502224304 18 261 4.8 12.9 0.00 0.00 0.00 26 1013.7
20260502223805 18 253 9.7 24.1 0.00 0.00 0.00 28 1013.8
20260502221805 18 293 16.1 25.7 0.00 0.00 0.00 28 1014.0
20260502221304 18 286 9.7 19.3 0.00 0.00 0.00 27 1014.1
20260502220804 18 270 14.5 24.1 0.00 0.00 0.00 26 1014.2
20260502220304 18 283 17.7 22.5 0.00 0.00 0.00 28 1014.2
20260502215804 18 300 8.0 22.5 0.00 0.00 0.00 28 1014.2
20260502215305 18 280 11.3 24.1 0.00 0.00 0.00 27 1014.3
20260502214303 18 227 11.3 22.5 0.00 0.00 0.00 28 1014.5
20260502213804 18 236 8.0 19.3 0.00 0.00 0.00 29 1014.5
20260502212804 17 269 11.3 27.4 0.00 0.00 0.00 29 1014.8
20260502211805 18 285 8.0 19.3 0.00 0.00 0.00 30 1014.9
20260502211304 18 271 16.1 24.1 0.00 0.00 0.00 29 1014.9
20260502210804 18 264 4.8 16.1 0.00 0.00 0.00 30 1015.0
20260502205305 17 253 14.5 25.7 0.00 0.00 0.00 31 1015.1
20260502203804 17 333 8.0 19.3 0.00 0.00 0.00 30 1015.3
20260502203304 17 23 8.0 16.1 0.00 0.00 0.00 31 1015.4
20260502201304 17 331 12.9 19.3 0.00 0.00 0.00 31 1015.7
20260502200804 16 273 17.7 25.7 0.00 0.00 0.00 31 1015.8
20260502200304 17 233 11.3 27.4 0.00 0.00 0.00 34 1015.9
20260502195805 17 254 16.1 25.7 0.00 0.00 0.00 32 1016.1
20260502194804 16 273 11.3 22.5 0.00 0.00 0.00 32 1016.3
20260502193804 16 346 6.4 14.5 0.00 0.00 0.00 31 1016.4
20260502193303 16 263 12.9 22.5 0.00 0.00 0.00 33 1016.6
20260502192804 16 269 16.1 24.1 0.00 0.00 0.00 33 1016.6
20260502192305 16 293 19.3 25.7 0.00 0.00 0.00 33 1016.6
20260502191805 16 259 12.9 24.1 0.00 0.00 0.00 33 1016.6
20260502191303 16 273 19.3 27.4 0.00 0.00 0.00 33 1016.8
20260502190804 16 286 14.5 27.4 0.00 0.00 0.00 33 1016.7
20260502185804 16 4 8.0 19.3 0.00 0.00 0.00 31 1016.9
20260502182804 16 324 12.9 22.5 0.00 0.00 0.00 31 1017.1
20260502181804 16 342 6.4 19.3 0.00 0.00 0.00 32 1017.2
20260502180304 15 343 11.3 19.3 0.00 0.00 0.00 32 1017.3
20260502170304 14 299 3.2 12.9 0.00 0.00 0.00 39 1017.9
20260502164304 14 43 8.0 16.1 0.00 0.00 0.00 42 1018.0
20260502163804 13 28 4.8 14.5 0.00 0.00 0.00 43 1018.1
20260502163303 13 342 4.8 8.0 0.00 0.00 0.00 43 1018.1
20260502162804 13 350 4.8 9.7 0.00 0.00 0.00 44 1018.2
20260502161304 13 324 4.8 12.9 0.00 0.00 0.00 45 1018.1
20260502160304 13 358 6.4 14.5 0.00 0.00 0.00 47 1018.2
20260502150803 11 309 6.4 12.9 0.00 0.00 0.00 60 1018.3
20260502150303 10 323 6.4 12.9 0.00 0.00 0.00 61 1018.3
20260502122804 3 275 11.3 16.1 0.00 0.00 0.00 84 1017.9
20260502121804 3 278 11.3 12.9 0.00 0.00 0.00 86 1017.9
20260502115805 3 275 12.9 14.5 0.00 0.00 0.00 85 1017.7
20260502115306 3 274 12.9 14.5 0.00 0.00 0.00 85 1017.6
20260502114304 3 275 9.7 12.9 0.00 0.00 0.00 84 1017.5
20260502112804 3 278 11.3 12.9 0.00 0.00 0.00 84 1017.5
20260502111804 3 274 11.3 14.5 0.00 0.00 0.00 83 1017.6
20260502110803 3 273 9.7 11.3 0.00 0.00 0.00 82 1017.5
20260502104804 4 283 9.7 12.9 0.00 0.00 0.00 82 1017.4
20260502104304 5 284 9.7 12.9 0.00 0.00 0.00 82 1017.4
20260502103804 5 284 9.7 12.9 0.00 0.00 0.00 82 1017.3
20260502102804 5 283 9.7 12.9 0.00 0.00 0.00 82 1017.2
20260502101804 5 278 11.3 12.9 0.00 0.00 0.00 81 1017.1
20260502100304 5 282 12.9 14.5 0.00 0.00 0.00 81 1017.1
20260502090804 6 300 8.0 12.9 0.00 0.00 0.00 78 1016.6
20260502071303 7 279 12.9 16.1 0.00 0.00 0.00 78 1015.9
20260502070304 7 277 8.0 12.9 0.00 0.00 0.00 76 1015.9
20260502065804 7 274 9.7 11.3 0.00 0.00 0.00 75 1015.8
20260502064804 7 279 9.7 12.9 0.00 0.00 0.00 74 1015.8
20260502063804 8 284 8.0 12.9 0.00 0.00 0.00 72 1015.9
20260502062804 8 295 11.3 12.9 0.00 0.00 0.00 71 1015.7
20260502062306 8 289 9.7 16.1 0.00 0.00 0.00 70 1015.7
20260502061804 8 281 14.5 19.3 0.00 0.00 0.00 69 1015.7
20260502060304 10 287 4.8 11.3 0.00 0.00 0.00 66 1015.6
20260502055305 10 295 4.8 8.0 0.00 0.00 0.00 68 1015.5
20260502053303 11 6 8.0 9.7 0.00 0.00 0.00 66 1015.4
20260502052804 11 0 8.0 8.0 0.00 0.00 0.00 66 1015.3
20260502052306 11 4 8.0 9.7 0.00 0.00 0.00 66 1015.3
20260502051804 11 353 9.7 12.9 0.00 0.00 0.00 66 1015.4
20260502050803 11 340 11.3 16.1 0.00 0.00 0.00 64 1015.5
20260502045804 11 323 4.8 8.0 0.00 0.00 0.00 65 1015.5
20260502045306 11 331 8.0 9.7 0.00 0.00 0.00 64 1015.5
20260502044804 11 338 8.0 9.7 0.00 0.00 0.00 63 1015.5
20260502044304 11 336 4.8 4.8 0.00 0.00 0.00 63 1015.4
20260502042306 11 298 4.8 4.8 0.00 0.00 0.00 63 1015.4
20260502041804 12 302 3.2 4.8 0.00 0.00 0.00 63 1015.3
20260502041304 12 333 3.2 4.8 0.00 0.00 0.00 63 1015.4
20260502040804 11 327 3.2 4.8 0.00 0.00 0.00 63 1015.2
20260502040304 12 327 4.8 4.8 0.00 0.00 0.00 63 1015.3
20260502035805 11 338 6.4 9.7 0.00 0.00 0.00 64 1015.3
20260502035306 11 338 8.0 14.5 0.00 0.00 0.00 64 1015.3
20260502034803 12 331 4.8 9.7 0.00 0.00 0.00 65 1015.4
20260502034304 12 316 4.8 9.7 0.00 0.00 0.00 64 1015.3
20260502033304 12 356 9.7 14.5 0.00 0.00 0.00 62 1015.0
20260502032804 12 356 9.7 12.9 0.00 0.00 0.00 62 1014.8
20260502032306 12 0 11.3 16.1 0.00 0.00 0.00 61 1014.7
20260502031804 12 5 11.3 22.5 0.00 0.00 0.00 60 1014.6
20260502031304 12 6 14.5 20.9 0.00 0.00 0.00 60 1014.5
20260502030304 13 8 20.9 32.2 0.00 0.00 0.00 55 1014.3
20260502025804 13 15 19.3 24.1 0.00 0.00 0.00 55 1014.1
20260502024804 14 6 11.3 14.5 0.00 0.00 0.00 50 1013.8
20260502022803 15 11 11.3 16.1 0.00 0.00 0.00 48 1013.5
20260502022306 15 25 9.7 16.1 0.00 0.00 0.00 47 1013.5
20260502021804 15 24 9.7 14.5 0.00 0.00 0.00 47 1013.4
20260502015804 15 21 11.3 19.3 0.00 0.00 0.00 46 1013.0
20260502015305 15 33 9.7 19.3 0.00 0.00 0.00 45 1012.9
20260502014304 16 32 11.3 19.3 0.00 0.00 0.00 44 1013.0